Location: Borealis Mine
(38.3824°N, 118.7610°W)
Time: 17:41:30
(UTC+00:00)

X-37B - Visible Passes

Search period start: 24 January 2022 00:00
Search period end: 03 February 2022 00:00
Orbit: 334 x 337 km, 45.0° (Epoch: 11 January)

Date Brightness Start Highest point End Pass type
(mag) Time Alt. Az. Time Alt. Az. Time Alt. Az.
24 Jan 3.3 02:58:48 10° SSW 02:59:02 11° SSW 02:59:02 11° SSW visible
25 Jan 3.5 03:18:31 10° SW 03:18:59 14° SW 03:18:59 14° SW visible
26 Jan 2.0 02:04:16 10° SSW 02:06:28 21° SE 02:07:38 16° ESE visible
27 Jan 0.4 02:23:58 10° SW 02:26:45 61° SSE 02:27:26 43° E visible
28 Jan 0.8 02:44:26 10° W 02:47:10 50° NNW 02:47:10 50° NNW visible
29 Jan 2.6 03:05:19 10° WNW 03:06:51 22° NW 03:06:51 22° NW visible
30 Jan 0.9 01:49:52 10° W 01:52:38 50° NNW 01:55:16 11° NE visible
30 Jan 3.7 03:26:15 10° WNW 03:26:30 11° NW 03:26:30 11° NW visible
31 Jan 1.8 02:10:44 10° WNW 02:13:14 27° NNW 02:14:53 16° NE visible
01 Feb 2.1 02:31:41 10° WNW 02:33:57 21° N 02:34:28 20° NNE visible
02 Feb 2.4 02:52:26 10° NW 02:54:05 19° NNW 02:54:05 19° NNW visible
